Torna al catalogo

SL-19 R/B

AttivoPO
NORAD 29269·ROCKET BODY·🇷🇺 Russia

Lanciato Jul 28, 2006 da Plesetsk Cosmodrome

Loading…

Prossimi Passaggi (prossime 24 ore)

TLE

AggiornatoSource: Space-Track

Epoca: Sep 14, 2026, 00:13 UTC

1 29269U 06031B   26257.00950943  .00001477  00000-0  96809-4 0  9995
2 29269  98.2861 256.4935 0104495 211.3327 148.1644 15.05199891 97361

Traccia SL-19 R/B in tempo reale con AllMySat

Download on the App Store